Regional Weather Roundup
Issued by NWS

Home | Current Version | Previous Version | Graphics & Text | Print | Product List | Glossary On
Versions: 1 2 3 4 5 6 7 8 9 10 11 12 13 14 15 16 17 18 19 20 21 22 23 24 25 26 27
000
ASUS45 KPSR 160010
RWRAZ

ARIZONA HOURLY REGIONAL WEATHER ROUNDUP
NATIONAL WEATHER SERVICE PHOENIX AZ
500 PM MST FRI DEC 15 2017

NOTE: FAIR INDICATES FEW OR NO CLOUDS BELOW 12,000 FEET WITH NO
SIGNIFICANT WEATHER AND/OR OBSTRUCTIONS TO VISIBILITY.

AZZ001>003-036-160100-
NORTHWEST ARIZONA

CITY           SKY/WX    TMP DP  RH WIND       PRES   REMARKS
BULLHEAD CITY  CLEAR     68  14  12 NW6       30.05F
KINGMAN        CLEAR     59   2  10 SW8       30.10F
6HR MIN TEMP:  56; 6HR MAX TEMP:  65;

$$

AZZ004>008-015-016-018-160100-
NORTH CENTRAL ARIZONA

CITY           SKY/WX    TMP DP  RH WIND       PRES   REMARKS
GRAND CANYON   CLEAR     51 -21   4 CALM      30.19S
6HR MIN TEMP:  50; 6HR MAX TEMP:  57;

WILLIAMS       CLEAR     52 -15   6 W7        30.17S
PRESCOTT       CLEAR     59  -8   6 NE3       30.13F
6HR MIN TEMP:  49; 6HR MAX TEMP:  62;

FLAGSTAFF      CLEAR     47  -8  10 S8        30.19S
6HR MIN TEMP:  47; 6HR MAX TEMP:  56;

PAYSON         CLEAR     52   7  16 S5        30.14F
PAGE           CLEAR     47  15  27 CALM      30.14F
6HR MIN TEMP:  38; 6HR MAX TEMP:  49;

$$

AZZ009>014-017-160100-
NORTHEAST ARIZONA

CITY           SKY/WX    TMP DP  RH WIND       PRES   REMARKS
WINSLOW        CLEAR     48   4  16 E7        30.15F
6HR MIN TEMP:  39; 6HR MAX TEMP:  52;

SAINT JOHNS    CLEAR     46   3  17 N3        30.15F
6HR MIN TEMP:  36; 6HR MAX TEMP:  51;

SHOW LOW       CLEAR     45   3  18 N6        30.19F
$$

AZZ540-542>544-546-548-160100-
GREATER PHOENIX AREA

CITY           SKY/WX    TMP DP  RH WIND       PRES   REMARKS
PHOENIX        PTCLDY    71  13  10 CALM      30.02F
6HR MIN TEMP:  67; 6HR MAX TEMP:  72;

BUCKEYE        CLEAR     66  43  42 CALM      30.05S
GLENDALE       CLEAR     72  10   9 CALM      30.05F
LUKE AFB       CLEAR     69  20  15 NW5       30.02F
6HR MIN TEMP:  65; 6HR MAX TEMP:  72; 6HR PCP: TRACE;

DEER VALLEY    CLEAR     68   7   9 CALM      30.03F
6HR MIN TEMP:  65; 6HR MAX TEMP:  70;

SCOTTSDALE     CLEAR     69  19  15 W3        30.05F
6HR MIN TEMP:  66; 6HR MAX TEMP:  71;

MESA-FALCON    CLEAR     70  19  14 VRB5      30.04F
CHANDLER       CLEAR     72  16  12 CALM      30.04F
$$

AZZ539-553-160100-
SOUTHWEST MARICOPA COUNTY AND PINAL COUNTY

CITY           SKY/WX    TMP DP  RH WIND       PRES   REMARKS
CASA GRANDE    NOT AVBL
GILA BEND      CLEAR     72  16  12 E6        30.02F
$$

AZZ503-504-507>509-160100-
SOUTHEAST ARIZONA

CITY           SKY/WX    TMP DP  RH WIND       PRES   REMARKS
TUCSON         CLEAR     68  15  13 NE5       30.07F
6HR MIN TEMP:  63; 6HR MAX TEMP:  70;

DAVIS-MONTHAN  CLEAR     69  15  12 SE6       30.05F
6HR MIN TEMP:  63; 6HR MAX TEMP:  72;

RYAN FIELD     CLEAR     66  19  16 NW7       30.07F
NOGALES        CLEAR     61  14  16 NE6       30.08S
6HR MIN TEMP:  60; 6HR MAX TEMP:  67;

SIERRA VISTA   CLEAR     54  11  18 E10       30.14F
6HR MIN TEMP:  54; 6HR MAX TEMP:  59;

DOUGLAS        CLEAR     53  18  25 E8        30.13S
6HR MIN TEMP:  51; 6HR MAX TEMP:  59;

SAFFORD        CLEAR     57  18  21 S5        30.12F
6HR MIN TEMP:  52; 6HR MAX TEMP:  60;

$$

AZZ532-160100-
SOUTHWEST ARIZONA

CITY           SKY/WX    TMP DP  RH WIND       PRES   REMARKS
YUMA           CLEAR     75  19  12 N3        30.01F
6HR MIN TEMP:  67; 6HR MAX TEMP:  77;

$$

CAZ041-043-047-048-061-525>527-560>570-160100-
SOUTHERN CALIFORNIA

CITY           SKY/WX    TMP DP  RH WIND       PRES   REMARKS
DOWNTOWN L.A.  CLEAR     74  22  14 W5        30.01S
6HR MIN TEMP:  73; 6HR MAX TEMP:  81;

L.A. AIRPORT   PTCLDY    69  41  36 W7        30.02S
6HR MIN TEMP:  69; 6HR MAX TEMP:  81;

SAN DIEGO      PTCLDY    70  39  32 NW7       30.01F
6HR MIN TEMP:  68; 6HR MAX TEMP:  76;

BURBANK        CLEAR     74  11   9 S6        30.02S
6HR MIN TEMP:  72; 6HR MAX TEMP:  81;

ONTARIO        PTCLDY    77   4   6 W12       30.01F
6HR MIN TEMP:  69; 6HR MAX TEMP:  81;

RIVERSIDE      CLEAR     77  18  11 W10       30.01F
6HR MIN TEMP:  68; 6HR MAX TEMP:  81;

PALM SPRINGS   CLEAR     75  21  13 VRB6      30.03F
6HR MIN TEMP:  70; 6HR MAX TEMP:  78;

EL CENTRO NAS  PTCLDY    74  13   9 S5        30.03F
6HR MIN TEMP:  68; 6HR MAX TEMP:  76;

IMPERIAL       CLEAR     73  21  14 W3        30.02F
6HR MIN TEMP:  68; 6HR MAX TEMP:  76;

BLYTHE         CLEAR     69  26  20 E7        30.04F
6HR MIN TEMP:  64; 6HR MAX TEMP:  75;

NEEDLES        CLEAR     69  13  11 CALM      30.05F
6HR MIN TEMP:  64; 6HR MAX TEMP:  72;

$$

NVZ020-UTZ003-160100-
SOUTHERN NEVADA-UTAH

CITY           SKY/WX    TMP DP  RH WIND       PRES   REMARKS
LAS VEGAS      PTCLDY    59  15  18 E3        30.06F
6HR MIN TEMP:  54; 6HR MAX TEMP:  61;

SALT LAKE CITY CLOUDY    35  27  72 W6        30.07F WCI  30
6HR MIN TEMP:  35; 6HR MAX TEMP:  44;

$$

NMZ009-TXZ055-160100-
NEW MEXICO-WEST TEXAS

CITY           SKY/WX    TMP DP  RH WIND       PRES   REMARKS
ALBUQUERQUE    CLEAR     45  14  28 S7        30.15F
6HR MIN TEMP:  39; 6HR MAX TEMP:  48;

EL PASO        CLEAR     50  23  34 CALM      30.17F
6HR MIN TEMP:  45; 6HR MAX TEMP:  53;

$$


........................KEY........................
SKY/WX - SKY CONDITION/WEATHER
TMP    - TEMPERATURE IN FAHRENHEIT
DP     - DEW POINT IN FAHRENHEIT
RH     - RELATIVE HUMIDITY IN PERCENT
WIND   - DIRECTION AND SPEED IN MILES PER HOUR (MPH)
VRB    - VARIABLE WIND DIRECTION
PRES   - MEAN SEA LEVEL PRESSURE IN INCHES OF MERCURY
         F - FALLING PRESSURE   R - RISING PRESSURE
         S - STEADY PRESSURE
VSB    - VISIBILITY IN MILES
HX     - HEAT INDEX IN FAHRENHEIT
WCI    - WIND CHILL INDEX IN FAHRENHEIT
TC     - TEMPERATURE IN CELSIUS WHICH IS ALSO KNOWN AS
         TEMPERATURE IN CENTIGRADE
AFB    - AIR FORCE BASE
         LUKE AFB IS LUKE AIR FORCE BASE
         DAVIS-MONTHAN IS DAVIS-MONTHAN AIR FORCE BASE
NAS    - NAVAL AIR STATION
         EL CENTRO NAS IS EL CENTRO NAVAL AIR STATION
N/A    - NOT AVAILABLE





USA.gov is the U.S. government's official web portal to all federal, state and local government web resources and services.